GW2085 Weather Reports


Display with metric or nautical units.
time (UTC)temp
F
wind
direction
speed
MPH
gust
MPH
rain 1hr
in
rain 24hr
in
rain mn
in
humidity
%
barometer
mb
20260902060059 62 0 0.0 0.0 0.00 0.00 0.00 84 1015.6
20260902054553 63 0 0.0 0.0 0.00 0.00 0.00 84 1015.7
20260902053056 63 0 0.0 0.0 0.00 0.00 0.00 83 1015.8
20260902051555 64 0 0.0 0.0 0.00 0.00 0.00 82 1015.7
20260902050054 64 0 0.0 0.0 0.00 0.00 0.00 81 1015.8
20260902044601 64 0 0.0 0.0 0.00 0.00 0.00 80 1015.6
20260902043058 65 0 0.0 0.0 0.00 0.00 0.00 79 1015.6
20260902041607 66 0 0.0 1.0 0.00 0.00 0.00 78 1015.3
20260902040103 66 131 0.0 0.0 0.00 0.00 0.00 77 1015.0
20260902034605 67 0 0.0 1.0 0.00 0.00 0.00 76 1014.7
20260902033101 68 0 0.0 1.0 0.00 0.00 0.00 74 1014.5
20260902031614 69 0 0.0 1.0 0.00 0.00 0.00 71 1014.3
20260902024611 71 0 0.0 2.0 0.00 0.00 0.00 67 1014.2
20260902023106 72 111 1.0 5.0 0.00 0.00 0.00 65 1014.0
20260902021605 73 261 3.0 6.0 0.00 0.00 0.00 62 1013.9
20260902020059 75 205 1.0 6.0 0.00 0.00 0.00 56 1014.0
20260902014554 76 158 2.0 4.0 0.00 0.00 0.00 52 1014.0
20260902013100 79 278 3.0 4.0 0.00 0.00 0.00 49 1013.8
20260902011608 79 263 0.0 3.0 0.00 0.00 0.00 47 1013.8
20260902010058 79 281 1.0 5.0 0.00 0.00 0.00 49 1013.8
20260902004555 80 310 1.0 4.0 0.00 0.00 0.00 47 1013.8
20260902003104 79 312 2.0 6.0 0.00 0.00 0.00 47 1013.8
20260902001615 80 289 2.0 6.0 0.00 0.00 0.00 47 1013.8
20260902000055 81 356 3.0 8.0 0.00 0.00 0.00 48 1013.8
20260901234608 82 30 2.0 6.0 0.00 0.00 0.00 46 1013.8
20260901233107 83 9 3.0 9.0 0.00 0.00 0.00 45 1014.0
20260901231610 84 277 3.0 8.0 0.00 0.00 0.00 43 1013.9
20260901230057 84 245 2.0 8.0 0.00 0.00 0.00 43 1014.0
20260901224559 84 281 3.0 8.0 0.00 0.00 0.00 43 1014.0
20260901223054 85 264 4.0 8.0 0.00 0.00 0.00 40 1014.1
20260901221554 86 231 5.0 9.0 0.00 0.00 0.00 35 1014.1
20260901220100 86 212 3.0 11.0 0.00 0.00 0.00 35 1014.2
20260901214605 88 277 2.0 8.0 0.00 0.00 0.00 34 1014.3
20260901213134 88 248 2.0 7.0 0.00 0.00 0.00 36 1014.3
20260901211559 87 239 3.0 9.0 0.00 0.00 0.00 39 1014.4
20260901210056 87 302 4.0 9.0 0.00 0.00 0.00 42 1014.5
20260901204553 87 242 5.0 10.0 0.00 0.00 0.00 42 1014.4
20260901203120 86 311 6.0 12.0 0.00 0.00 0.00 43 1014.5
20260901201602 88 217 2.0 8.0 0.00 0.00 0.00 42 1014.6
20260901200059 88 330 3.0 7.0 0.00 0.00 0.00 42 1014.8
20260901194602 88 0 3.0 9.0 0.00 0.00 0.00 41 1014.9
20260901193059 88 26 1.0 6.0 0.00 0.00 0.00 36 1015.0
20260901191619 88 201 2.0 6.0 0.00 0.00 0.00 37 1015.3
20260901190058 87 238 1.0 4.0 0.00 0.00 0.00 35 1015.4
20260901184604 86 243 1.0 5.0 0.00 0.00 0.00 39 1015.4
20260901183105 85 172 1.0 4.0 0.00 0.00 0.00 42 1015.6
20260901181602 83 278 1.0 5.0 0.00 0.00 0.00 47 1015.7
20260901174604 79 67 2.0 6.0 0.00 0.00 0.00 51 1015.7
20260901173102 78 244 2.0 6.0 0.00 0.00 0.00 59 1015.8
20260901171604 77 144 2.0 4.0 0.00 0.00 0.00 61 1015.7
20260901170057 75 203 2.0 4.0 0.00 0.00 0.00 68 1015.8
20260901164608 73 0 2.0 7.0 0.00 0.00 0.00 71 1015.7
20260901163104 72 242 0.0 4.0 0.00 0.00 0.00 75 1015.7
20260901161557 71 236 1.0 3.0 0.00 0.00 0.00 78 1015.6
20260901160105 69 213 1.0 5.0 0.00 0.00 0.00 82 1015.6
20260901154600 67 131 1.0 3.0 0.00 0.00 0.00 89 1015.5
20260901153110 65 250 0.0 3.0 0.00 0.00 0.00 92 1015.4
20260901151601 63 0 0.0 1.0 0.00 0.00 0.00 93 1015.2
20260901150100 62 0 0.0 1.0 0.00 0.00 0.00 92 1015.1
20260901144602 61 171 0.0 1.0 0.00 0.00 0.00 93 1015.2
20260901143105 61 0 0.0 2.0 0.00 0.00 0.00 93 1015.2
20260901141600 60 0 0.0 0.0 0.00 0.00 0.00 93 1015.2
20260901140106 59 0 0.0 0.0 0.00 0.00 0.00 93 1015.2
20260901134607 58 0 0.0 0.0 0.00 0.00 0.00 93 1015.0
20260901133053 58 0 0.0 0.0 0.00 0.00 0.00 93 1014.6
20260901131607 58 0 0.0 0.0 0.00 0.00 0.00 92 1014.6
20260901130100 59 0 0.0 0.0 0.00 0.00 0.00 92 1014.5
20260901124555 59 0 0.0 0.0 0.00 0.00 0.00 92 1014.3
20260901123103 59 0 0.0 0.0 0.00 0.00 0.00 92 1014.3
20260901121603 59 0 0.0 0.0 0.00 0.00 0.00 92 1014.2
20260901120056 59 0 0.0 0.0 0.00 0.00 0.00 91 1014.2
20260901114559 59 0 0.0 0.0 0.00 0.00 0.00 91 1014.3
20260901113102 59 0 0.0 0.0 0.00 0.00 0.00 92 1014.4
20260901111556 59 0 0.0 0.0 0.00 0.00 0.00 91 1014.3
20260901110055 59 0 0.0 0.0 0.00 0.00 0.00 91 1014.4
20260901104609 59 0 0.0 0.0 0.00 0.00 0.00 91 1014.4
20260901103057 60 0 0.0 0.0 0.00 0.00 0.00 91 1014.5
20260901101612 60 0 0.0 0.0 0.00 0.00 0.00 91 1014.5
20260901100105 60 0 0.0 0.0 0.00 0.00 0.00 90 1014.4
20260901094600 60 0 0.0 0.0 0.00 0.00 0.00 90 1014.5
20260901093058 61 0 0.0 0.0 0.00 0.00 0.00 90 1014.4
20260901091610 61 0 0.0 0.0 0.00 0.00 0.00 90 1014.5
20260901090055 61 0 0.0 0.0 0.00 0.00 0.00 90 1014.4
20260901084558 61 0 0.0 0.0 0.00 0.00 0.00 89 1014.6
20260901083057 61 0 0.0 0.0 0.00 0.00 0.00 89 1014.5
20260901081555 62 0 0.0 0.0 0.00 0.00 0.00 88 1014.6
20260901080104 62 0 0.0 0.0 0.00 0.00 0.00 88 1014.4
20260901074614 62 0 0.0 0.0 0.00 0.00 0.00 87 1014.6
20260901073057 63 0 0.0 0.0 0.00 0.00 0.00 87 1014.6
20260901071601 63 0 0.0 0.0 0.00 0.00 0.00 86 1014.6
20260901070111 63 0 0.0 0.0 0.00 0.00 0.00 85 1014.7
20260901064558 64 0 0.0 0.0 0.00 0.00 0.00 85 1014.6
20260901063117 64 0 0.0 0.0 0.00 0.00 0.00 85 1014.5
20260901061554 64 0 0.0 0.0 0.00 0.00 0.00 84 1014.4